Rochester/St. Mary\'s Hospita, MN

1:21 AM CDT on March 25, 2017 (GMT -0500)
Rochester/St. Mary\'s Hospita

Weather History for K9MN - March, 2014

Change the Weather History Date:

Friday, March 28, 2014

  Actual Average (KRST) Record (KRST)
Temperature  
Mean Temperature 34 °F -  
Max Temperature 39 °F 45 °F 76 °F (1946)
Min Temperature 29 °F 28 °F 0 °F (1969)
Degree Days  
Heating Degree Days 32    
Moisture  
Dew Point 21 °F    
Average Humidity 65    
Maximum Humidity 96    
Minimum Humidity 47    
Precipitation  
Precipitation 0.06 in - - ()
Sea Level Pressure  
Sea Level Pressure 30.00 in    
Wind  
Wind Speed 10 mph (NNW)    
Max Wind Speed 17 mph    
Max Gust Speed 30 mph    
Visibility 10 miles    
Events      
Averages and records for this station are not official NWS values.
T = Trace of Precipitation, MM = Missing Value Source: NWS Daily Summary

Daily Weather History Graph

Daily Weather History Graph

Search for Another Location

Airport or City:

Trip Planner

Search our weather history database for the weather conditions in past years. The results will help you decide how hot, cold, wet, or windy it might be!

Date:

Astronomy

Mar. 28, 2014 Rise Set
Actual Time 6:58 AM CDT 7:32 PM CDT
Civil Twilight 6:29 AM CDT 8:01 PM CDT
Nautical Twilight 5:55 AM CDT 8:35 PM CDT
Astronomical Twilight 5:19 AM CDT 9:11 PM CDT
Moon 5:34 AM CDT (3/28) 5:25 PM CDT (3/28)
Length of Visible Light 13h 31m
Length of Day
12h 33m
Waning Crescent, 6% of the Moon is Illuminated
Mar 28
Waning Crescent
Mar 30
New
Apr 7
First Quarter
Apr 15
Full
Apr 22
Last Quarter

Hourly Weather History & Observations

Time (CDT) Temp. Windchill Dew Point Humidity Pressure Visibility Wind Dir Wind Speed Gust Speed Precip Events Conditions
12:12 AM 32.0 °F 22.1 °F 31.1 °F 96% 29.63 in 10.0 mi NW 13.8 mph 21.9 mph N/A   Overcast
12:32 AM 32.0 °F 23.6 °F 30.4 °F 94% 29.65 in 10.0 mi NW 10.4 mph 25.3 mph N/A   Overcast
12:53 AM 32.0 °F 23.0 °F 29.8 °F 92% 29.65 in 10.0 mi NW 11.5 mph 20.7 mph N/A   Overcast
1:12 AM 31.8 °F 20.6 °F 29.1 °F 90% 29.66 in 10.0 mi NW 17.3 mph 25.3 mph N/A   Overcast
1:32 AM 31.1 °F 19.7 °F 27.5 °F 87% 29.68 in 10.0 mi NW 17.3 mph 29.9 mph N/A   Overcast
1:53 AM 30.9 °F 19.8 °F 27.0 °F 85% 29.70 in 10.0 mi NW 16.1 mph 24.2 mph N/A   Overcast
2:12 AM 30.7 °F 20.9 °F 25.5 °F 81% 29.72 in 10.0 mi NW 12.7 mph 26.5 mph N/A   Overcast
2:32 AM 30.2 °F 20.2 °F 24.4 °F 79% 29.74 in 10.0 mi NW 12.7 mph 27.6 mph N/A   Overcast
2:53 AM 30.0 °F 19.1 °F 24.4 °F 80% 29.76 in 10.0 mi NNW 15.0 mph 25.3 mph N/A   Overcast
3:12 AM 30.0 °F 19.5 °F 24.3 °F 79% 29.77 in 10.0 mi NW 13.8 mph 23.0 mph N/A   Overcast
3:32 AM 30.0 °F 19.5 °F 24.1 °F 79% 29.79 in 10.0 mi NW 13.8 mph 25.3 mph N/A   Overcast
3:53 AM 30.0 °F 20.5 °F 23.9 °F 78% 29.81 in 10.0 mi NW 11.5 mph 19.6 mph N/A   Overcast
4:12 AM 30.0 °F 22.4 °F 24.1 °F 79% 29.82 in 10.0 mi NNW 8.1 mph 20.7 mph N/A   Overcast
4:32 AM 30.0 °F 21.1 °F 24.4 °F 80% 29.84 in 10.0 mi NNW 10.4 mph 20.7 mph N/A   Overcast
4:53 AM 29.8 °F 20.3 °F 24.8 °F 81% 29.85 in 10.0 mi NW 11.5 mph 23.0 mph N/A   Overcast
5:12 AM 30.0 °F 20.5 °F 25.2 °F 82% 29.86 in 10.0 mi NW 11.5 mph 17.3 mph N/A   Overcast
5:32 AM 29.5 °F 19.3 °F 23.9 °F 80% 29.87 in 10.0 mi NW 12.7 mph 23.0 mph N/A   Overcast
5:53 AM 29.5 °F 21.1 °F 23.7 °F 79% 29.88 in 10.0 mi NNW 9.2 mph 19.6 mph N/A   Overcast
6:12 AM 29.3 °F 18.6 °F 23.5 °F 79% 29.89 in 10.0 mi NNW 13.8 mph 21.9 mph N/A   Overcast
6:33 AM 29.7 °F 20.7 °F 23.5 °F 78% 29.90 in 10.0 mi NNW 10.4 mph 20.7 mph N/A   Overcast
6:53 AM 29.3 °F 20.8 °F 22.5 °F 76% 29.92 in 10.0 mi NW 9.2 mph 16.1 mph N/A   Overcast
7:12 AM 29.3 °F 21.5 °F 22.6 °F 76% 29.93 in 10.0 mi NW 8.1 mph - N/A   Overcast
7:33 AM 29.5 °F 21.8 °F 22.8 °F 76% 29.94 in 10.0 mi North 8.1 mph - N/A   Overcast
7:53 AM 29.5 °F 21.8 °F 21.0 °F 71% 29.94 in 10.0 mi North 8.1 mph - N/A   Mostly Cloudy
8:12 AM 29.8 °F 23.9 °F 20.8 °F 69% 29.96 in 10.0 mi NNW 5.8 mph 16.1 mph N/A   Scattered Clouds
8:33 AM 30.2 °F 21.9 °F 21.0 °F 69% 29.97 in 10.0 mi North 9.2 mph - N/A   Clear
8:53 AM 30.2 °F 21.3 °F 20.8 °F 68% 29.98 in 10.0 mi North 10.4 mph 16.1 mph N/A   Scattered Clouds
9:12 AM 30.2 °F 23.4 °F 20.1 °F 66% 30.00 in 10.0 mi North 6.9 mph - N/A   Scattered Clouds
9:33 AM 30.9 °F 25.2 °F 19.9 °F 64% 30.02 in 10.0 mi NW 5.8 mph - N/A   Mostly Cloudy
9:53 AM 30.2 °F 22.6 °F 19.9 °F 66% 30.03 in 10.0 mi NNW 8.1 mph 16.1 mph N/A   Mostly Cloudy
10:12 AM 31.6 °F 27.0 °F 20.5 °F 63% 30.01 in 10.0 mi North 4.6 mph - N/A   Mostly Cloudy
10:33 AM 32.0 °F 23.6 °F 20.1 °F 62% 30.01 in 10.0 mi North 10.4 mph 16.1 mph N/A   Scattered Clouds
10:53 AM 32.4 °F 27.9 °F 20.3 °F 61% 30.02 in 10.0 mi NW 4.6 mph - N/A   Clear
11:12 AM 32.0 °F 24.8 °F 19.8 °F 61% 30.04 in 10.0 mi NNW 8.1 mph - N/A   Clear
11:33 AM 33.1 °F 30.0 °F 20.5 °F 60% 30.05 in 10.0 mi North 3.5 mph - N/A   Scattered Clouds
11:52 AM 34.7 °F 26.9 °F 20.5 °F 56% 30.07 in 10.0 mi NW 10.4 mph - N/A   Mostly Cloudy
12:12 PM 34.5 °F 29.4 °F 20.1 °F 56% 30.06 in 10.0 mi NNW 5.8 mph - N/A   Scattered Clouds
12:33 PM 34.5 °F 26.7 °F 20.3 °F 56% 30.06 in 10.0 mi WNW 10.4 mph - N/A   Scattered Clouds
12:52 PM 34.2 °F 26.2 °F 19.8 °F 56% 30.06 in 10.0 mi WNW 10.4 mph - N/A   Scattered Clouds
1:12 PM 35.4 °F 29.7 °F 20.3 °F 54% 30.07 in 10.0 mi NNW 6.9 mph - N/A   Scattered Clouds
1:33 PM 36.1 °F 33.5 °F 20.8 °F 54% 30.08 in 10.0 mi NW 3.5 mph - N/A   Scattered Clouds
1:52 PM 36.3 °F 30.8 °F 20.7 °F 53% 30.07 in 10.0 mi WNW 6.9 mph - N/A   Scattered Clouds
2:12 PM 36.9 °F 31.4 °F 20.7 °F 52% 30.08 in 10.0 mi WNW 6.9 mph - N/A   Clear
2:33 PM 36.9 °F 30.7 °F 20.1 °F 51% 30.08 in 10.0 mi NNE 8.1 mph - N/A   Clear
2:52 PM 37.9 °F 32.1 °F 20.1 °F 49% 30.08 in 10.0 mi NNE 8.1 mph - N/A   Clear
3:12 PM 37.6 °F 33.1 °F 20.1 °F 49% 30.08 in 10.0 mi NNE 5.8 mph - N/A   Clear
3:33 PM 37.6 °F 33.1 °F 19.2 °F 48% 30.10 in 10.0 mi NNE 5.8 mph - N/A   Clear
3:52 PM 37.6 °F 32.3 °F 19.4 °F 48% 30.11 in 10.0 mi NNE 6.9 mph - N/A   Clear
4:12 PM 38.3 °F 33.9 °F 19.9 °F 48% 30.11 in 10.0 mi NNE 5.8 mph - N/A   Clear
4:33 PM 37.4 °F 34.9 °F 18.9 °F 47% 30.12 in 10.0 mi NW 3.5 mph - N/A   Clear
4:52 PM 37.4 °F 32.8 °F 19.2 °F 48% 30.12 in 10.0 mi NNW 5.8 mph - N/A   Clear
5:12 PM 36.7 °F 30.5 °F 19.0 °F 49% 30.13 in 10.0 mi NW 8.1 mph - N/A   Scattered Clouds
5:33 PM 36.3 °F 30.8 °F 18.9 °F 49% 30.13 in 10.0 mi NW 6.9 mph - N/A   Scattered Clouds
5:52 PM 36.5 °F 31.0 °F 18.5 °F 48% 30.13 in 10.0 mi NW 6.9 mph - N/A   Scattered Clouds
6:13 PM 36.0 °F 28.5 °F 17.6 °F 47% 30.14 in 10.0 mi NW 10.4 mph - N/A   Scattered Clouds
6:33 PM 35.1 °F 31.0 °F 17.6 °F 49% 30.14 in 10.0 mi NNW 4.6 mph - N/A   Mostly Cloudy
6:52 PM 34.9 °F 28.3 °F 17.2 °F 49% 30.15 in 10.0 mi NNW 8.1 mph - N/A   Overcast
7:13 PM 34.7 °F 30.6 °F 18.1 °F 51% 30.15 in 10.0 mi NNW 4.6 mph - N/A   Overcast
7:33 PM 34.7 °F 30.6 °F 18.5 °F 52% 30.15 in 10.0 mi NNW 4.6 mph - N/A   Mostly Cloudy
7:52 PM 34.0 °F 27.2 °F 16.9 °F 50% 30.15 in 10.0 mi North 8.1 mph - N/A   Mostly Cloudy
8:13 PM 33.8 °F 28.6 °F 17.8 °F 52% 30.16 in 10.0 mi North 5.8 mph - N/A   Overcast
8:33 PM 33.3 °F 27.9 °F 19.2 °F 56% 30.16 in 10.0 mi North 5.8 mph - N/A   Overcast
8:52 PM 32.9 °F 26.7 °F 19.6 °F 58% 30.17 in 10.0 mi NNE 6.9 mph - N/A   Scattered Clouds
9:13 PM 32.5 °F 29.3 °F 19.8 °F 59% 30.17 in 10.0 mi North 3.5 mph - N/A   Clear
9:33 PM 32.4 °F 26.9 °F 19.6 °F 59% 30.17 in 10.0 mi North 5.8 mph - N/A   Clear
9:52 PM 32.0 °F 27.5 °F 19.4 °F 60% 30.18 in 10.0 mi North 4.6 mph - N/A   Clear
10:13 PM 32.0 °F 28.7 °F 19.0 °F 59% 30.19 in 10.0 mi NNW 3.5 mph - N/A   Clear
10:32 PM 31.6 °F 28.3 °F 19.9 °F 62% 30.19 in 10.0 mi NW 3.5 mph - N/A   Clear
10:52 PM 31.1 °F 26.4 °F 18.9 °F 61% 30.19 in 10.0 mi NW 4.6 mph - N/A   Mostly Cloudy
11:13 PM 31.1 °F - 19.6 °F 62% 30.20 in 10.0 mi Calm Calm - N/A   Mostly Cloudy
11:32 PM 30.9 °F 27.5 °F 19.4 °F 62% 30.19 in 10.0 mi NW 3.5 mph - N/A   Overcast
11:52 PM 31.1 °F 27.7 °F 19.4 °F 62% 30.20 in 10.0 mi NW 3.5 mph - N/A   Overcast